Date,TemperatureHighF,TemperatureAvgF,TemperatureLowF,DewpointHighF,DewpointAvgF,DewpointLowF,HumidityHigh,HumidityAvg,HumidityLow,PressureMaxIn,PressureMinIn,WindSpeedMaxMPH,WindSpeedAvgMPH,GustSpeedMaxMPH,PrecipitationSumIn
2013-1-1,33.1,27.9,15.5,27.0,18.2,4.0,79,67,56,29.87,29.68,16,4,27,0.00
2013-1-2,26.7,17.0,6.7,16.9,9.2,-0.8,84,71,60,30.09,29.86,15,1,15,0.00
2013-1-3,22.3,10.7,-2.1,12.0,0.9,-8.4,80,65,41,30.11,29.97,9,1,10,0.00
2013-1-4,35.2,27.2,16.6,25.7,20.0,12.2,88,74,65,29.97,29.79,13,2,19,0.00
2013-1-5,38.9,31.5,20.5,26.2,21.6,15.3,83,67,52,30.21,29.81,13,2,19,0.00
2013-1-6,38.5,30.2,20.9,29.6,25.0,16.6,92,81,69,30.17,29.90,8,1,12,0.00
2013-1-7,34.8,28.9,16.8,29.2,21.5,13.1,92,75,46,30.34,29.94,11,1,14,0.00
2013-1-8,41.6,31.2,16.2,29.8,24.4,12.5,88,76,61,30.33,30.24,12,2,15,0.00
2013-1-9,41.8,35.4,20.5,35.4,29.5,18.0,94,80,58,30.34,29.98,14,2,20,0.00
2013-1-10,43.2,37.6,30.2,31.4,25.8,23.0,76,62,51,30.49,30.04,18,2,25,0.00
2013-1-11,35.9,31.1,22.7,34.5,26.7,19.2,95,84,67,30.48,30.15,5,0,9,0.00
2013-1-12,41.8,38.5,35.6,41.0,37.6,34.5,97,97,95,30.16,30.08,4,0,7,0.00
2013-1-13,45.7,42.5,37.9,45.2,41.9,37.1,98,98,97,30.10,29.95,7,0,10,0.00
2013-1-14,52.6,44.8,34.4,50.8,40.4,27.6,99,85,63,30.21,29.82,13,2,18,0.00
2013-1-15,37.7,33.2,28.2,27.6,25.8,23.8,87,74,64,30.27,30.16,8,0,9,0.00
2013-1-16,32.7,31.0,28.4,31.4,28.8,24.3,96,92,77,30.20,29.78,6,0,6,0.00
2013-1-17,38.4,31.7,24.4,32.9,26.2,14.4,96,81,62,30.05,29.79,11,2,14,0.00
2013-1-18,24.5,18.1,12.2,15.5,5.0,0.3,72,57,42,30.39,29.99,13,2,16,0.00
2013-1-19,41.5,32.2,17.8,31.4,21.8,8.7,74,65,56,30.32,29.83,19,4,21,0.00
2013-1-20,46.9,36.8,24.7,32.6,25.3,11.5,77,63,37,29.88,29.51,19,4,24,0.00
2013-1-21,24.7,20.3,15.4,17.6,11.6,6.5,90,69,57,30.02,29.74,12,1,18,0.00
2013-1-22,20.1,15.1,6.8,16.4,5.9,-1.4,91,68,43,30.03,29.72,18,2,18,0.00
2013-1-23,11.8,6.3,1.7,3.2,-5.1,-9.1,80,59,45,30.10,30.01,14,2,19,0.00
2013-1-24,16.1,6.5,-3.9,-2.1,-6.4,-10.4,75,56,41,30.22,30.05,16,2,22,0.00
2013-1-25,18.9,11.5,3.9,10.4,-2.0,-7.9,84,55,39,30.29,30.02,10,1,11,0.00
2013-1-26,20.8,12.8,6.4,9.9,3.1,-2.1,86,66,43,30.22,29.97,14,2,20,0.00
2013-1-27,27.4,16.2,6.5,7.7,3.5,0.4,77,58,39,30.44,30.21,12,1,16,0.00
2013-1-28,25.6,20.0,10.4,23.4,14.4,2.1,93,79,50,30.42,29.97,6,0,9,0.00
2013-1-29,34.1,29.7,24.9,32.4,28.0,23.2,96,93,90,30.14,29.97,6,0,8,0.00
2013-1-30,57.0,47.8,33.4,56.0,47.0,32.4,98,97,96,30.08,29.36,19,3,27,0.00
2013-1-31,59.9,49.9,27.0,58.5,46.3,15.0,98,88,60,29.52,28.93,31,8,33,0.00
2013-2-1,30.0,25.8,23.0,15.0,11.6,8.8,69,55,45,29.86,29.52,15,4,23,0.00
2013-2-3,26.3,23.6,18.8,19.2,17.7,13.7,84,78,71,29.86,29.70,3,0,7,0.00
2013-2-4,23.9,19.0,16.4,14.7,13.2,11.6,83,78,62,29.77,29.69,10,1,14,0.00
2013-2-8,22.1,19.1,16.6,20.1,17.1,14.4,92,92,91,29.89,29.63,24,11,31,0.00
2013-2-9,19.3,15.6,10.7,17.4,13.5,8.0,92,91,89,30.19,29.61,30,8,31,0.00
2013-2-10,30.7,17.8,8.0,29.7,15.8,5.2,96,91,88,30.41,30.19,12,1,15,0.00
2013-2-11,42.2,31.6,16.4,41.7,30.5,14.2,98,96,91,30.31,29.60,11,1,16,0.00
2013-2-12,39.9,35.6,32.8,36.2,29.9,23.8,98,80,65,29.84,29.60,14,3,23,0.00
2013-2-13,40.3,33.4,29.9,27.2,24.3,22.4,86,69,56,29.82,29.66,9,1,11,0.00
2013-2-14,42.0,34.0,22.6,27.2,23.7,18.2,90,67,48,29.93,29.66,8,1,11,0.00
2013-2-15,48.6,36.5,26.8,34.3,29.6,22.1,93,77,57,29.94,29.85,13,1,15,0.00
2013-2-16,36.8,32.0,25.3,30.6,25.4,13.3,94,77,59,29.91,29.67,11,2,19,0.00
2013-2-17,25.2,19.0,12.0,13.6,5.7,0.9,75,56,45,29.70,29.41,18,6,25,0.00
2013-2-18,27.2,17.5,9.6,5.0,2.1,-0.3,64,51,35,30.13,29.70,21,4,26,0.00
2013-2-19,44.2,32.7,16.3,39.8,24.4,3.8,96,72,53,30.15,29.54,10,2,18,0.00
2013-2-20,37.5,34.1,30.9,36.2,31.8,26.6,95,91,84,29.56,29.52,11,2,19,0.00
2013-2-22,32.4,31.1,30.3,23.9,23.0,22.1,76,72,66,30.29,30.26,5,0,7,0.00
2013-2-23,33.7,31.8,30.0,31.5,28.3,23.8,95,87,76,30.27,29.84,8,0,10,0.00
2013-2-24,35.2,33.5,31.8,33.9,32.3,30.4,96,95,93,29.85,29.68,11,2,13,0.00
2013-2-25,36.1,32.3,26.5,32.3,29.9,24.6,95,91,84,30.20,29.85,9,1,10,0.00
2013-2-26,39.4,34.8,31.5,32.9,30.1,28.1,95,83,69,30.27,30.07,10,1,14,0.00
2013-2-27,39.7,35.4,33.1,38.9,34.1,29.6,97,95,86,30.08,29.55,20,6,24,0.00
2013-2-28,42.7,35.7,31.4,39.0,33.6,30.1,96,92,82,29.58,29.50,5,0,7,0.00
2013-3-1,41.0,35.6,31.4,32.7,29.8,25.7,95,80,64,29.65,29.50,13,2,16,0.00
2013-3-2,37.1,33.2,29.7,29.3,27.0,24.0,82,78,71,29.65,29.59,12,2,13,0.00
2013-3-3,34.4,30.2,27.2,29.8,25.8,22.2,90,84,77,29.61,29.55,9,1,12,0.00
2013-3-4,38.3,29.8,23.4,26.5,22.4,18.4,83,74,60,29.74,29.58,18,3,23,0.00
2013-3-5,44.0,33.8,25.4,30.8,25.9,20.7,83,73,57,30.03,29.74,11,2,13,0.00
2013-3-6,35.5,33.4,30.7,33.5,31.4,28.7,95,92,83,30.04,29.98,19,6,24,0.00
2013-3-7,33.0,30.7,28.7,30.2,28.3,26.2,96,91,82,30.02,29.96,21,8,24,0.00
2013-3-8,35.4,31.6,28.8,32.8,29.6,25.7,97,92,78,30.14,29.91,21,6,22,0.00
2013-3-9,55.5,39.3,27.1,28.7,24.2,17.0,87,60,22,30.30,30.13,13,2,13,0.00
2013-3-10,48.5,36.5,20.8,33.0,28.2,18.6,95,74,50,30.34,30.24,9,1,10,0.00
2013-3-11,51.2,40.6,32.9,41.0,35.2,30.7,93,82,55,30.26,30.08,11,2,13,0.00
2013-3-12,51.5,47.6,41.1,51.0,46.4,40.0,98,96,91,30.08,29.66,10,2,14,0.00
2013-3-13,41.0,38.8,37.0,40.0,37.0,34.9,96,93,92,29.73,29.71,4,1,10,0.00
2013-3-14,30.3,25.6,19.7,20.2,13.2,8.6,73,59,51,29.80,29.69,13,3,20,0.00
2013-3-15,36.9,27.7,16.2,29.1,17.3,9.2,91,66,40,29.83,29.62,12,2,18,0.00
2013-3-16,35.7,30.0,21.6,26.4,17.4,14.1,86,60,44,29.83,29.65,10,1,12,0.00
2013-3-17,34.2,27.4,20.3,16.9,12.5,5.9,82,55,33,30.26,29.83,14,2,25,0.00
2013-3-18,36.7,26.2,12.9,24.7,8.6,1.9,88,49,29,30.40,30.14,9,1,11,0.00
2013-3-19,33.2,30.0,26.3,32.2,28.6,24.2,96,95,88,30.14,29.59,15,4,22,0.00
2013-3-20,35.5,27.8,21.4,27.3,21.6,18.2,96,78,57,29.77,29.66,16,2,22,0.00
2013-3-21,25.5,24.3,22.3,20.4,19.2,17.4,83,81,78,29.77,29.76,1,0,1,0.00
2013-3-24,44.6,39.6,29.3,26.8,24.8,21.7,73,55,47,29.79,29.69,11,2,18,0.00
2013-3-25,42.1,35.4,29.3,29.5,26.5,22.7,77,70,58,29.72,29.46,16,3,19,0.00
2013-3-26,45.0,37.0,32.8,31.4,26.7,20.7,86,67,46,29.76,29.52,12,1,14,0.00
2013-3-27,45.0,32.0,27.2,28.2,22.6,20.8,78,69,50,29.79,29.74,8,0,11,0.00
2013-3-30,50.2,35.4,32.0,25.0,23.2,22.7,70,61,37,30.06,30.00,1,0,12,0.00
2013-3-31,56.3,41.5,26.2,39.5,29.2,21.7,91,65,34,30.07,29.65,15,2,20,0.00
2013-4-1,58.5,41.8,30.6,45.8,34.7,15.2,96,77,47,29.75,29.48,14,3,23,0.00
2013-4-2,36.1,30.5,25.7,21.5,16.9,13.9,77,57,43,29.90,29.75,20,4,32,0.00
2013-4-3,41.6,32.7,26.2,22.5,16.8,13.7,79,53,35,30.14,29.89,20,4,22,0.00
2013-4-4,52.7,38.1,26.6,24.7,20.1,16.8,72,50,29,30.26,30.03,12,2,16,0.00
2013-4-5,44.5,37.4,35.0,28.9,28.3,27.0,75,69,50,29.87,29.79,6,1,14,0.00
2013-4-6,44.9,35.1,28.0,29.2,14.7,9.1,76,45,24,30.27,29.85,18,3,23,0.00
2013-4-7,56.0,40.8,26.1,40.0,26.9,12.6,89,59,36,30.27,29.94,20,3,27,0.00
2013-4-8,65.3,51.3,40.1,42.1,39.3,35.3,95,67,34,30.02,29.92,9,1,13,0.00
2013-4-9,66.8,54.9,43.9,54.4,45.1,39.5,97,71,47,30.00,29.82,14,2,20,0.00
2013-4-10,63.9,53.5,45.7,53.2,48.5,43.1,96,84,61,29.93,29.79,6,0,7,0.01
2013-4-11,52.8,46.5,37.5,49.9,37.9,27.5,96,73,59,30.08,29.77,11,3,14,0.00
2013-4-12,37.4,34.8,33.3,34.2,33.1,31.8,96,94,84,30.09,29.74,15,4,20,0.00
2013-4-13,50.9,42.0,33.7,40.8,36.2,32.4,96,81,58,29.90,29.72,13,1,13,0.01
2013-4-14,48.5,41.3,32.2,38.9,32.5,26.7,95,73,48,30.18,29.87,13,1,18,0.00
2013-4-15,59.4,44.5,28.7,38.7,32.8,25.6,93,66,43,30.34,30.18,8,1,10,0.00
2013-4-16,65.2,50.4,34.3,52.0,42.8,29.5,92,76,51,30.33,30.02,19,4,20,0.01
2013-4-17,64.7,54.6,47.0,51.9,38.7,30.6,95,59,32,30.28,30.03,14,2,22,0.00
2013-4-18,61.2,51.0,40.1,46.9,35.5,29.0,86,56,41,30.35,30.08,14,3,18,0.00
2013-4-19,71.9,61.3,50.5,63.8,57.8,46.8,97,89,70,30.08,29.58,24,4,30,0.01
2013-4-20,63.5,49.1,37.0,61.8,39.4,23.6,96,71,42,30.19,29.56,15,3,26,0.03
2013-4-21,52.2,40.7,30.4,27.4,22.8,19.0,71,50,32,30.62,30.19,15,2,16,0.00
2013-4-22,52.3,40.9,28.4,33.5,28.5,25.0,91,64,37,30.69,30.52,12,2,18,0.00
2013-4-23,39.5,37.5,34.2,38.4,34.9,29.7,96,90,80,30.52,30.07,15,4,19,0.00
2013-4-24,72.5,59.0,39.5,51.7,46.6,38.5,96,67,39,30.07,29.76,12,3,18,0.00
2013-4-25,59.6,50.7,38.5,50.2,36.6,27.2,95,62,31,30.23,29.77,13,2,18,0.08
2013-4-26,62.1,50.6,36.4,40.5,34.1,26.5,74,54,38,30.36,30.23,11,1,12,0.00
2013-4-27,65.8,51.5,31.9,43.4,36.6,29.3,94,60,35,30.37,30.22,8,1,10,0.00
2013-4-28,70.3,54.3,35.6,46.4,38.6,30.9,95,59,34,30.28,30.14,12,1,12,0.00
2013-4-29,67.4,54.8,44.4,48.3,38.5,27.3,88,56,34,30.21,30.14,12,2,15,0.00
2013-4-30,71.9,61.2,47.6,40.3,33.3,28.3,68,36,25,30.29,30.19,9,1,13,0.00
2013-5-1,72.9,56.8,35.1,43.3,36.4,29.5,88,50,28,30.42,30.29,9,1,11,0.00
2013-5-2,78.9,59.5,41.5,49.9,42.4,35.1,91,57,28,30.41,30.25,12,1,16,0.00
2013-5-3,65.3,52.8,41.1,49.0,41.8,36.0,88,67,51,30.45,30.32,12,2,15,0.00
2013-5-4,68.5,53.4,37.6,50.3,38.4,25.0,97,62,25,30.33,30.21,12,2,15,0.00
2013-5-5,67.8,50.5,31.4,43.9,37.2,29.3,96,64,36,30.27,30.17,12,1,12,0.00
2013-5-6,75.0,54.4,33.5,49.7,42.4,31.7,96,69,34,30.23,30.08,9,0,9,0.00
2013-5-7,79.3,62.6,41.8,57.9,50.7,39.9,97,69,34,30.13,30.02,11,1,12,0.00
2013-5-8,72.1,61.6,52.7,64.0,58.2,51.0,97,89,66,30.12,29.98,12,1,15,0.10
2013-5-9,66.8,59.5,53.6,61.3,57.3,52.2,98,93,75,29.98,29.82,7,0,9,0.10
2013-5-10,77.4,64.0,49.1,62.6,55.7,48.0,98,77,49,29.92,29.85,8,1,9,0.01
2013-5-11,64.1,61.5,58.5,62.2,59.4,54.8,98,93,77,29.86,29.64,14,2,15,0.05
2013-5-12,65.9,56.5,45.1,59.9,49.3,33.8,98,79,48,29.77,29.55,16,1,16,2.24
2013-5-13,54.4,46.6,39.8,39.6,32.6,29.5,72,59,45,30.01,29.76,11,2,21,0.00
2013-5-14,58.3,47.3,37.4,38.9,34.0,31.9,85,61,41,30.02,29.96,11,1,15,0.00
2013-5-15,63.0,46.6,31.0,52.4,40.6,29.0,96,82,43,30.02,29.65,11,1,15,0.02
2013-5-16,79.0,69.3,48.0,52.7,45.1,37.2,97,45,29,29.75,29.61,16,2,22,0.00
2013-5-17,68.5,56.7,43.8,48.1,42.3,37.8,86,61,37,30.17,29.75,16,2,20,0.00
2013-5-18,72.2,56.7,38.0,51.9,44.3,36.0,96,67,37,30.27,30.17,8,1,10,0.00
2013-5-19,66.9,55.8,45.8,57.5,51.8,44.2,97,87,64,30.28,30.14,7,1,10,0.04
2013-5-20,80.9,66.3,54.7,69.3,61.6,53.9,99,86,64,30.15,29.90,7,0,11,0.03
2013-5-21,89.2,67.3,50.5,73.9,62.1,49.4,98,85,53,29.99,29.77,12,1,15,0.01
2013-5-22,78.7,65.8,50.1,72.7,62.8,49.0,98,90,79,29.95,29.79,8,1,15,0.02
2013-5-23,72.9,65.1,57.5,71.3,64.2,56.1,99,97,91,29.85,29.73,10,1,13,0.00
2013-5-24,67.5,59.0,45.0,65.9,56.9,43.4,99,93,82,29.79,29.58,12,2,16,0.02
2013-5-25,46.6,43.1,39.1,45.6,42.0,37.7,97,96,94,29.79,29.71,18,4,22,0.00
2013-5-26,54.7,46.0,37.5,46.5,40.7,35.9,96,83,63,30.08,29.72,15,2,18,0.00
2013-5-27,70.9,54.8,37.8,48.2,42.3,36.0,96,67,36,30.13,30.05,15,1,19,0.01
2013-5-28,73.1,58.7,39.0,55.5,47.3,37.2,97,69,38,30.19,30.10,9,0,10,0.00
2013-5-29,76.9,63.6,56.5,70.4,61.4,55.2,98,93,77,30.13,29.92,6,0,13,0.01
2013-5-30,87.5,73.5,60.3,75.4,67.7,59.5,99,84,58,30.06,29.98,5,0,8,0.00
2013-5-31,90.5,77.3,60.5,76.6,67.6,59.4,99,75,44,30.06,29.90,10,0,10,0.00
2013-6-1,89.7,77.2,62.0,74.6,68.4,60.2,96,76,54,29.94,29.81,10,1,12,0.00
2013-6-2,86.7,75.4,66.1,74.6,68.7,64.8,96,82,53,29.84,29.67,14,1,16,0.00
2013-6-3,77.4,67.5,54.3,69.1,62.6,44.3,98,85,64,29.81,29.73,5,0,9,0.01
2013-6-4,71.8,59.1,48.0,54.5,47.1,40.6,90,65,45,30.06,29.80,10,1,14,0.00
2013-6-5,73.2,59.5,43.4,57.8,50.2,41.8,97,74,48,30.16,30.06,6,0,8,0.00
2013-6-6,70.7,60.8,49.4,57.6,52.8,46.8,95,76,50,30.13,30.04,7,0,12,0.00
2013-6-7,55.8,54.0,51.0,55.2,52.9,50.2,98,96,92,30.05,29.75,9,0,11,0.01
2013-6-8,76.1,60.8,51.0,68.1,57.4,50.2,98,89,68,29.98,29.61,9,1,13,0.57
2013-6-9,57.6,55.1,52.3,56.2,53.9,51.2,96,96,95,30.04,29.98,0,0,2,0.00
2013-6-13,59.2,54.8,47.6,58.1,53.9,46.2,98,96,94,29.77,29.61,0,0,0,0.00
2013-6-14,76.5,59.6,49.3,61.4,53.9,48.5,98,83,49,29.77,29.59,0,0,0,0.00
2013-6-15,76.9,65.2,53.8,57.1,52.5,47.6,88,66,39,29.91,29.77,0,0,0,0.00
2013-6-16,73.8,63.3,49.8,63.4,56.0,46.6,95,78,60,29.91,29.67,0,0,2,0.00
2013-6-17,82.1,66.9,54.4,68.7,61.3,52.7,98,83,56,29.86,29.74,13,0,23,0.00
2013-6-18,74.7,61.7,55.3,67.5,59.3,54.5,98,92,72,29.89,29.83,0,0,4,0.00
2013-6-19,75.2,62.4,51.8,56.5,52.6,45.9,96,74,37,30.11,29.86,2,0,7,0.00
2013-6-20,78.3,63.2,44.7,61.1,52.7,43.1,98,72,44,30.22,30.11,1,0,4,0.00
2013-6-21,82.4,68.2,53.6,69.6,61.0,51.8,96,79,57,30.21,30.15,0,0,1,0.00
2013-6-22,82.7,70.8,57.7,71.5,62.6,56.0,95,77,53,30.18,30.06,0,0,8,0.00
2013-6-23,87.3,75.0,61.2,76.7,67.7,57.7,92,79,61,30.12,29.95,6,0,9,0.00
2013-6-24,90.6,76.7,67.3,78.9,71.2,66.1,98,85,60,29.99,29.84,1,0,11,0.00
2013-6-25,88.1,75.3,64.2,76.3,69.7,63.3,98,84,61,29.91,29.68,0,0,6,0.00
2013-6-26,81.5,74.2,68.4,74.4,69.8,66.5,97,87,71,29.79,29.69,5,0,7,0.00
2013-6-27,77.6,70.3,64.6,72.7,68.4,63.8,98,94,82,29.79,29.67,0,0,1,0.00
2013-6-28,80.1,68.6,60.6,75.3,67.2,60.0,100,96,80,29.67,29.43,8,0,10,0.00
2013-6-29,82.1,73.9,69.1,73.1,69.9,67.7,98,88,69,29.67,29.45,1,0,8,0.00
2013-6-30,84.2,74.0,69.0,75.4,70.5,67.8,97,90,69,29.88,29.66,0,0,0,0.00
2013-7-1,76.8,72.8,70.6,74.8,71.8,69.7,98,97,92,30.02,29.88,0,0,0,0.00
2013-7-2,82.2,75.4,71.0,76.4,72.8,70.2,99,92,78,30.12,30.01,0,0,0,0.00
2013-7-3,87.2,77.9,71.8,78.5,73.7,70.6,96,88,69,30.16,30.09,0,0,0,0.00
2013-7-4,89.5,80.3,73.1,79.4,75.1,72.2,97,85,66,30.17,30.05,0,0,0,0.00
2013-7-5,90.3,81.3,72.5,80.9,75.2,71.4,97,83,64,30.12,29.99,0,0,0,0.00
2013-7-6,87.1,78.1,72.8,78.4,74.2,71.3,97,88,69,30.04,30.00,0,0,0,0.00
2013-7-7,88.4,73.8,70.7,78.2,72.0,69.5,96,94,72,29.92,29.87,0,0,0,0.00
2013-7-8,88.6,76.6,69.4,77.4,72.4,68.3,99,88,63,30.00,29.86,0,0,0,0.00
2013-7-9,79.6,71.8,67.0,74.1,69.5,66.1,98,93,81,30.04,29.97,0,0,0,0.00
2013-7-10,84.3,74.6,67.6,78.2,72.9,66.7,99,94,79,30.01,29.75,9,0,9,0.00
2013-7-11,83.5,75.2,69.1,75.6,71.9,64.5,99,90,65,29.90,29.73,2,0,5,0.00
2013-7-12,78.5,70.6,65.8,67.5,62.2,58.3,86,75,61,30.14,29.89,7,0,12,0.00
2013-7-13,76.2,70.0,64.3,73.2,66.7,58.0,97,89,77,30.26,30.14,0,0,0,0.00
2013-7-14,90.7,79.3,72.1,78.5,74.1,70.6,99,85,61,30.27,30.16,3,0,6,0.00
2013-7-15,92.4,79.3,69.5,77.6,72.7,68.6,99,82,54,30.17,30.07,2,0,6,0.00
2013-7-16,91.0,79.3,67.5,75.8,70.7,65.3,94,77,52,30.13,30.07,6,0,9,0.00
2013-7-17,92.5,79.4,70.5,77.1,72.7,68.5,94,81,61,30.12,29.97,0,0,6,0.00
2013-7-18,93.8,83.2,72.9,80.9,75.4,71.3,97,79,58,29.98,29.88,4,0,5,0.00
2013-7-19,94.5,83.7,73.0,81.4,76.0,71.3,97,79,58,29.90,29.68,9,0,11,0.00
2013-7-20,88.4,80.4,68.1,81.1,73.4,62.8,97,80,62,29.78,29.62,5,0,8,0.00
2013-7-21,86.8,74.0,61.7,73.3,66.5,59.8,97,79,52,29.94,29.78,0,0,0,0.00
2013-7-22,83.6,72.9,63.0,73.8,68.2,61.8,98,86,66,29.96,29.81,0,0,0,0.00
2013-7-23,83.2,72.2,67.7,78.4,70.6,66.8,99,95,81,29.81,29.49,0,0,0,0.00
2013-7-24,80.6,73.7,62.7,71.8,67.0,54.5,98,81,58,29.92,29.55,0,0,0,0.00
2013-7-25,63.9,59.6,55.0,58.7,54.4,48.7,94,83,72,30.05,29.92,0,0,0,0.00
2013-7-26,68.5,63.7,60.0,65.3,61.2,58.1,97,92,82,30.02,29.94,0,0,0,0.00
2013-7-27,82.4,69.1,57.0,70.7,63.3,55.9,98,83,53,30.03,29.95,0,0,0,0.00
2013-7-28,81.4,70.0,59.1,72.6,65.7,57.7,99,87,67,29.97,29.91,0,0,0,0.00
2013-7-29,85.0,73.5,64.1,72.8,66.9,61.3,98,82,53,30.01,29.92,0,0,0,0.00
2013-7-30,79.7,68.9,57.2,65.4,60.5,54.9,93,76,54,30.07,30.01,0,0,0,0.53
2013-7-31,81.1,68.4,56.7,67.3,60.8,55.3,97,79,48,30.11,30.00,0,0,0,0.00
2013-8-1,76.7,64.6,55.6,69.6,62.2,54.2,98,92,73,30.01,29.82,0,0,0,0.18
2013-8-2,81.2,70.8,63.7,70.2,64.6,61.3,99,82,55,29.84,29.75,0,0,0,1.67
2013-8-3,78.3,67.7,56.8,68.1,62.1,54.2,97,83,61,29.83,29.75,0,0,0,0.00
2013-8-4,78.0,64.5,53.6,64.7,57.6,52.1,97,80,53,29.88,29.76,5,0,11,0.00
2013-8-5,75.4,61.5,51.5,55.3,51.7,45.5,96,73,40,30.02,29.87,5,0,13,0.00
2013-8-6,78.6,62.6,46.2,61.6,53.9,44.6,98,76,49,30.11,30.02,0,0,0,0.00
2013-8-7,78.2,65.6,53.4,63.8,58.5,51.8,98,80,51,30.15,30.06,0,0,0,0.00
2013-8-8,65.6,65.3,65.0,64.0,62.9,62.0,95,92,89,30.07,30.01,0,0,0,0.03
2013-8-14,72.2,65.0,54.1,59.3,56.0,50.2,92,73,59,29.94,29.70,8,0,14,0.00
2013-8-15,75.6,64.2,47.5,60.1,55.5,46.1,98,75,51,30.09,29.94,0,0,0,0.00
2013-8-16,78.0,62.9,49.6,63.0,55.7,48.5,98,80,51,30.17,30.08,1,0,5,0.00
2013-8-17,80.8,65.4,51.1,65.9,58.6,49.7,98,81,51,30.25,30.17,0,0,0,0.00
2013-8-18,76.2,65.7,54.5,67.8,61.6,53.4,98,88,68,30.24,30.05,4,0,4,0.00
2013-8-19,78.0,67.0,56.2,68.2,61.9,55.1,98,85,64,30.06,29.93,5,0,6,0.00
2013-8-20,84.2,69.9,58.6,71.4,63.2,57.5,98,81,56,30.08,29.97,4,0,7,0.00
2013-8-21,85.1,70.3,57.3,72.9,64.0,56.1,98,82,58,30.12,30.00,6,0,6,0.00
2013-8-22,64.5,64.5,64.5,63.0,63.0,63.0,95,95,95,30.00,30.00,0,0,0,0.00
2013-8-29,63.0,61.1,59.9,61.2,60.0,58.5,96,96,94,30.02,29.99,0,0,2,0.00
2013-8-30,82.1,68.2,58.0,73.0,65.1,56.8,99,90,68,29.99,29.80,4,0,7,0.00
2013-8-31,78.5,73.1,67.4,74.9,71.5,66.2,99,95,87,29.80,29.74,5,0,12,0.00
2013-9-1,78.0,72.5,67.7,76.2,71.5,66.8,99,97,91,29.84,29.76,4,0,12,0.01
2013-9-2,78.7,73.3,71.2,77.0,72.2,70.3,99,96,89,29.81,29.66,6,0,10,0.11
2013-9-3,76.4,69.3,60.7,71.1,66.3,57.4,99,90,79,29.79,29.66,6,0,6,0.20
2013-9-4,60.6,59.1,57.6,57.6,56.9,56.2,96,93,89,29.82,29.77,6,0,6,0.02
2013-9-15,64.5,54.9,54.3,56.8,52.3,52.0,93,91,76,30.05,30.02,0,0,1,0.02
2013-9-16,67.9,56.4,43.7,58.7,50.9,37.8,95,82,64,30.22,30.00,11,1,11,0.02
2013-9-17,45.3,42.0,40.6,42.8,37.4,36.2,93,84,80,30.31,30.22,1,0,8,0.02
2013-9-18,70.8,52.5,37.6,54.4,45.6,36.3,98,80,44,30.30,30.13,4,0,6,0.03
2013-9-19,76.3,57.9,42.9,61.4,51.2,41.6,98,81,44,30.13,30.02,0,0,0,0.04
2013-9-20,77.9,60.5,44.7,63.9,54.2,43.4,98,82,49,30.05,29.96,0,0,0,0.03
2013-9-21,72.0,62.4,50.4,65.7,59.4,49.0,98,90,74,29.99,29.66,8,1,13,0.03
2013-9-22,68.1,60.7,48.4,66.3,55.3,44.1,97,83,63,29.81,29.55,7,0,12,0.09
2013-9-23,60.4,49.9,40.8,48.5,43.4,39.2,94,79,58,29.99,29.81,10,0,12,0.07
2013-9-24,65.6,50.6,39.6,49.9,42.4,37.5,93,76,41,29.98,29.80,8,0,11,0.03
2013-9-25,44.3,43.3,42.5,41.8,41.1,40.5,93,92,91,29.89,29.88,0,0,0,0.01
2013-9-26,65.9,57.4,49.7,54.4,50.2,47.1,95,78,61,30.08,29.98,6,0,6,0.01
2013-9-27,62.8,56.8,53.0,55.2,52.0,50.5,92,84,71,30.20,30.08,5,0,6,0.00
2013-9-28,54.4,52.0,49.5,51.7,50.0,47.5,94,93,90,30.25,30.22,0,0,0,0.00
2013-9-29,69.6,53.9,42.1,56.3,47.8,40.8,98,82,53,30.22,30.07,6,0,6,0.00
2013-9-30,71.0,53.7,39.1,56.4,47.6,37.8,98,82,52,30.09,29.93,4,0,6,0.00
2013-10-1,75.3,58.8,44.2,61.5,53.2,43.0,98,84,56,29.95,29.83,6,0,11,0.00
2013-10-2,76.9,63.9,50.7,65.7,57.7,49.6,98,81,62,29.93,29.83,9,0,13,0.01
2013-10-3,73.3,59.0,45.8,59.4,51.8,44.2,98,79,43,30.06,29.93,5,0,6,0.01
2013-10-4,63.8,57.0,49.4,60.5,55.0,48.0,98,93,79,30.05,30.00,4,0,4,0.00
2013-10-5,68.6,62.2,58.1,63.1,59.4,57.1,98,91,77,30.08,30.01,0,0,0,0.01
2013-10-6,60.0,55.0,51.8,58.9,54.3,51.0,98,97,95,30.15,30.05,6,0,7,0.08
2013-10-7,55.4,54.9,54.5,54.8,54.3,54.0,98,98,98,30.07,30.02,0,0,3,0.00
2013-10-10,58.0,53.3,39.5,51.9,48.9,38.5,98,85,71,30.29,30.14,4,0,7,0.20
2013-10-11,70.7,57.4,45.6,59.1,48.6,40.7,95,75,36,30.14,30.05,6,0,8,0.13
2013-10-12,55.9,54.3,51.2,54.5,51.4,48.2,96,90,78,30.34,30.10,9,1,13,0.09
2013-10-13,57.2,52.0,47.5,50.5,48.5,44.9,94,88,75,30.40,30.32,5,0,7,0.04
2013-10-14,65.8,50.4,35.5,51.6,44.2,34.0,98,81,52,30.35,30.21,3,0,5,0.02
2013-10-15,67.1,57.7,50.5,57.5,52.7,48.7,96,84,66,30.23,30.11,6,0,8,0.01
2013-10-16,57.5,50.5,48.5,53.2,48.9,46.9,97,94,83,30.12,30.03,1,0,6,0.01
2013-10-21,64.5,55.5,35.5,46.8,43.2,34.0,95,64,48,30.08,29.94,9,1,13,0.01
2013-10-22,60.5,51.3,43.8,52.0,46.2,36.6,97,83,70,29.94,29.67,7,0,10,0.00
2013-10-23,49.7,41.6,32.1,39.0,34.8,30.1,95,78,57,29.75,29.55,4,0,5,0.01
2013-10-24,50.9,42.8,33.6,36.0,31.6,27.3,89,66,45,29.86,29.63,10,1,16,0.00
2013-10-25,46.6,39.0,30.7,37.3,30.9,26.5,95,74,53,30.12,29.86,10,1,13,0.00
2013-10-26,51.9,41.3,29.5,36.7,31.5,26.8,94,70,45,30.12,29.82,14,2,20,0.00
2013-10-27,50.3,45.0,37.3,37.8,34.6,30.5,77,67,52,30.03,29.75,9,1,12,0.00
2013-10-28,54.6,41.2,29.9,41.0,32.5,25.8,94,73,52,30.31,30.03,10,1,14,0.00
2013-10-29,46.3,33.7,25.2,28.7,23.6,21.4,89,69,39,30.40,30.31,7,0,11,0.00
2013-10-30,51.4,37.8,27.5,42.3,33.2,21.9,94,84,69,30.33,30.17,4,0,7,0.00
2013-10-31,59.4,46.6,32.9,58.8,45.7,31.4,98,97,93,30.21,29.74,12,1,19,0.09
2013-11-1,65.8,61.3,54.4,62.6,57.9,47.9,97,89,80,29.75,29.40,19,4,28,0.08
2013-11-2,63.7,51.5,38.9,49.0,43.7,37.0,97,77,52,29.71,29.55,9,0,11,0.00
2013-11-3,45.7,38.2,29.1,44.0,27.7,17.9,94,67,41,30.38,29.70,13,3,15,0.00
2013-11-4,41.7,31.4,25.2,21.9,18.4,15.7,78,59,40,30.66,30.38,9,1,10,0.00
2013-11-5,49.4,36.2,24.5,35.8,28.9,19.3,90,75,57,30.67,30.47,7,0,10,0.00
2013-11-6,57.9,48.1,37.0,48.5,42.6,34.3,94,82,64,30.47,30.00,11,2,15,0.00
2013-11-7,59.7,50.6,38.1,57.0,47.3,26.9,95,88,64,30.00,29.65,13,2,21,0.04
2013-11-8,44.8,36.2,27.1,36.7,27.9,23.0,91,72,56,30.06,29.77,13,2,21,0.00
2013-11-9,41.8,35.1,28.4,31.8,26.5,22.4,81,71,57,30.17,29.97,11,1,12,0.00
2013-11-10,50.6,43.2,37.7,40.7,36.1,30.5,95,76,65,29.98,29.72,11,1,15,0.00
2013-11-11,48.8,42.6,36.0,33.0,30.1,27.3,71,61,49,30.06,29.85,13,2,19,0.00
2013-11-12,45.7,32.3,23.8,36.8,24.6,16.1,92,74,61,30.15,29.84,10,2,13,0.01
2013-11-13,32.8,26.4,20.7,19.1,16.1,13.6,79,66,47,30.27,30.13,12,1,12,0.00
2013-11-14,48.7,40.3,27.7,28.7,23.5,18.2,70,51,44,30.13,30.03,10,1,12,0.00
2013-11-15,59.2,44.1,32.3,30.9,23.0,17.5,68,45,22,30.17,30.07,8,1,12,0.00
2013-11-16,58.1,44.3,34.6,37.8,31.7,28.1,87,63,38,30.27,30.14,5,0,7,0.00
2013-11-17,57.0,46.6,33.9,56.3,44.7,30.7,98,93,86,30.26,29.77,10,0,12,0.01
2013-11-18,62.2,56.5,44.0,60.8,47.8,31.7,98,74,52,29.78,29.49,11,2,23,0.24
2013-11-19,43.9,36.4,28.9,33.4,24.7,19.3,70,62,52,30.24,29.62,13,3,22,0.00
2013-11-21,43.9,38.5,18.5,34.0,27.5,15.0,87,65,44,30.59,30.34,10,1,12,0.00
2013-11-22,46.4,43.5,39.1,45.5,41.8,33.9,97,94,81,30.34,29.78,6,0,8,0.09
2013-11-23,46.4,36.3,24.6,45.6,27.7,16.5,97,71,52,29.89,29.76,15,3,18,0.00
2013-11-24,24.6,19.8,15.9,18.8,7.3,1.8,86,59,38,30.18,29.77,19,4,23,0.00
2013-11-25,30.7,22.5,13.5,17.0,8.2,0.2,61,54,37,30.35,30.17,13,2,15,0.00
2013-11-26,35.3,32.2,25.8,33.1,25.5,15.8,95,77,58,30.29,29.97,11,1,15,0.05
2013-11-27,59.3,44.1,33.2,59.0,43.3,31.2,99,97,92,29.97,29.23,13,2,16,1.14
2013-11-28,33.6,26.3,18.2,31.3,16.9,10.4,91,68,49,30.39,29.45,18,2,23,0.23
2013-11-29,31.8,23.7,15.6,17.6,13.9,7.5,86,67,49,30.69,30.39,8,0,11,0.00
2013-11-30,30.7,21.4,8.4,22.3,12.6,5.1,89,69,54,30.75,30.38,8,0,10,0.00
2013-12-1,38.9,34.3,28.0,36.8,31.9,22.3,96,91,79,30.38,29.97,2,0,6,0.00
2013-12-2,37.6,35.8,34.1,36.8,34.9,33.1,97,97,96,29.98,29.87,1,0,2,0.00
2013-12-7,35.0,30.4,23.2,32.1,25.7,20.1,96,83,73,30.41,30.12,7,0,10,0.04
2013-12-8,27.6,23.8,17.0,21.2,18.5,14.2,93,80,64,30.55,30.40,6,0,8,0.00
2013-12-9,33.9,29.6,22.6,33.1,28.0,19.2,97,94,79,30.44,29.87,7,1,10,0.10
2013-12-10,33.2,29.0,20.7,32.4,26.5,16.6,97,90,81,29.96,29.75,8,1,13,0.10
2013-12-11,27.1,22.1,17.5,20.7,17.6,14.2,89,83,73,30.17,29.96,10,1,12,0.00
2013-12-12,21.9,16.7,9.7,18.9,7.4,2.7,88,67,48,30.24,30.01,10,1,15,0.00
2013-12-13,26.5,18.7,12.4,20.1,12.0,6.9,86,75,65,30.33,29.95,12,2,15,0.00
2013-12-14,18.2,11.3,7.8,15.8,5.1,-1.2,92,76,58,30.53,30.06,10,2,11,0.13
2013-12-15,19.6,18.8,17.9,17.7,16.9,16.0,92,92,92,30.07,29.94,8,4,11,0.08
2013-12-22,63.3,56.3,39.6,59.9,52.8,37.4,98,88,81,29.91,29.67,12,2,19,0.01
2013-12-23,40.0,36.6,34.0,39.5,35.6,32.3,98,96,90,30.06,29.88,9,0,11,0.40
2013-12-24,35.0,29.1,20.4,32.4,21.5,9.8,90,73,57,30.18,30.01,8,1,18,0.00
2013-12-25,21.5,16.3,11.2,10.1,6.5,2.5,75,65,50,30.48,30.18,14,2,15,0.00
2013-12-26,30.0,22.8,15.1,28.0,19.2,7.3,93,86,70,30.44,30.07,5,0,9,0.03
2013-12-27,31.2,24.7,14.5,23.5,19.8,12.1,93,82,67,30.24,30.17,11,1,12,0.00
2013-12-28,43.8,32.7,22.7,30.8,25.9,19.5,90,77,57,30.19,29.97,12,1,13,0.00
2013-12-29,40.5,35.6,31.2,36.8,32.0,26.1,96,87,70,30.00,29.41,11,1,18,0.89
2013-12-30,37.7,28.8,13.2,34.6,22.1,7.5,96,77,51,30.11,29.53,13,2,14,0.00
2013-12-31,22.2,16.1,8.4,16.8,9.8,5.3,89,76,59,30.15,29.98,13,1,19,0.00
2014-1-1,26.0,18.9,14.5,13.8,9.6,5.3,83,67,52,30.33,30.14,9,1,13,0.00
2014-1-2,18.0,11.1,1.9,14.5,7.9,-1.7,89,87,83,30.30,29.78,22,4,22,0.03